PBO Station Position Time Series. Reference Frame : NAM14
Format Version,1.1.1
4-character ID,NYLV
Station name,Lowville
Begin Date, 2006-04-22
End Date, 2023-06-26
Release Date, 2023-06-27
Reference position, 43.7964658810 North Latitude, -75.4854368717 East Longitude, 240.41323 meters elevation,
Date, North (mm), East (mm), Vertical (mm), North Std. Deviation (mm), East Std. Deviation (mm),              Vertical Std. Deviation (mm), Quality,
2006-04-22,0.00, 0.00, 0.00, 2.09, 1.60, 7.12, repro,
2006-04-24,0.31, 0.23, 7.17, 2.10, 1.62, 7.20, repro,
2006-04-25,-1.26, -1.09, 9.62, 2.13, 1.64, 7.29, repro,
2006-04-26,-2.08, -1.89, 9.17, 2.08, 1.60, 7.09, repro,
2006-04-27,-0.87, -2.24, 5.58, 2.13, 1.64, 7.25, repro,
2006-04-28,-0.82, -1.22, -1.28, 2.17, 1.69, 7.49, repro,
2006-04-29,-1.19, -1.63, -3.57, 2.09, 1.61, 7.19, repro,
2006-05-02,-0.21, -0.51, 3.10, 2.17, 1.67, 7.29, repro,
2006-05-03,0.32, -0.61, 4.31, 2.16, 1.66, 7.28, repro,
2006-05-04,-0.24, -1.75, 8.86, 2.18, 1.69, 7.40, repro,
2006-05-05,0.53, -1.29, 9.98, 2.16, 1.67, 7.49, repro,
2006-05-06,-1.00, -1.05, 9.40, 2.16, 1.67, 7.47, repro,
2006-05-07,-0.90, -1.34, 7.06, 2.28, 1.78, 7.83, repro,
2006-05-08,-2.95, 0.07, 9.62, 3.14, 2.45, 10.53, repro,
2006-05-09,-0.50, -0.25, 13.31, 2.82, 2.31, 10.23, repro,
2006-05-10,-1.06, 0.03, 12.14, 2.24, 1.74, 7.72, repro,
2006-05-11,-0.06, 0.59, 11.94, 2.15, 1.67, 7.42, repro,
2006-05-12,1.70, 0.36, 10.02, 2.26, 1.80, 8.06, repro,
2006-05-13,-0.88, -0.94, 15.13, 2.22, 1.71, 7.76, repro,
2006-05-14,-1.47, -0.83, 2.35, 2.45, 1.91, 8.41, repro,
2006-05-15,-1.32, -0.96, -4.64, 2.37, 1.82, 8.07, repro,
2006-05-16,-0.47, 1.20, 15.16, 6.44, 5.42, 22.56, repro,
2006-05-17,-0.66, -0.11, 20.12, 2.29, 1.76, 7.75, repro,
2006-05-18,-0.07, 0.19, 18.06, 2.38, 1.83, 8.16, repro,
2006-05-19,-2.01, -0.31, 14.75, 2.28, 1.80, 7.87, repro,
2006-05-20,-1.79, -2.03, 17.59, 2.62, 2.04, 9.02, repro,
2006-05-21,-1.32, -0.99, 7.84, 2.44, 1.94, 8.66, repro,
2006-05-22,-2.23, -2.23, 8.29, 2.29, 1.78, 7.90, repro,
2006-05-23,-3.40, -1.60, 7.86, 2.23, 1.72, 7.69, repro,
2006-05-24,-0.34, -0.46, 5.50, 2.25, 1.77, 7.87, repro,
2006-05-25,-1.90, -0.88, 8.73, 2.25, 1.78, 7.73, repro,
2006-05-26,-1.81, 0.78, 20.12, 2.20, 1.75, 7.61, repro,
2006-05-27,-1.75, 0.66, 10.03, 2.46, 1.91, 8.42, repro,
2006-05-28,-1.14, 0.97, 5.67, 2.16, 1.68, 7.46, repro,
2006-05-29,-1.85, -0.59, 12.51, 2.21, 1.70, 7.64, repro,
2006-05-30,-1.09, -0.12, 1.13, 2.26, 1.83, 8.00, repro,
2006-05-31,-0.89, 2.00, 11.40, 2.33, 1.84, 8.05, repro,
2006-06-01,-0.12, 1.04, 6.19, 2.29, 1.75, 7.85, repro,
2006-06-02,-0.32, 0.73, 11.07, 2.21, 1.71, 7.62, repro,
2006-06-07,0.88, 7.49, -16.94, 10.79, 10.81, 50.88, repro,
2006-06-08,-0.57, -0.29, 12.26, 2.36, 1.84, 8.18, repro,
2006-06-09,0.05, -1.15, 2.39, 2.23, 1.72, 7.71, repro,
2006-06-10,-1.37, -0.36, 11.69, 2.19, 1.72, 7.67, repro,
2006-06-11,-2.68, -0.59, 10.14, 2.71, 2.09, 9.44, repro,
2006-06-12,-4.07, 1.25, 7.08, 3.26, 2.70, 11.99, repro,
2006-06-13,-1.34, -0.49, 10.90, 2.21, 1.75, 7.81, repro,
2006-06-14,0.58, -0.31, 6.43, 2.18, 1.69, 7.54, repro,
2006-06-15,-0.53, 1.06, 4.99, 2.24, 1.74, 7.72, repro,
2006-06-16,-0.81, 0.39, 8.11, 2.16, 1.70, 7.53, repro,
2006-06-17,-0.78, 2.38, 13.82, 2.15, 1.70, 7.48, repro,
2006-06-18,1.24, 4.30, 10.55, 2.53, 1.98, 8.90, repro,
2006-06-19,1.23, 1.04, 7.43, 4.25, 3.91, 18.43, repro,
2006-06-21,0.42, -4.82, 9.12, 6.03, 5.54, 26.58, repro,
2006-06-22,1.68, 3.28, 18.38, 2.27, 1.77, 7.76, repro,
2006-06-23,0.93, 0.73, 4.30, 2.48, 1.91, 8.42, repro,
2006-06-24,1.43, 1.14, 1.88, 2.21, 1.71, 7.60, repro,
2006-06-25,0.56, 1.30, 8.65, 2.21, 1.71, 7.57, repro,
2006-06-26,0.80, 1.48, 5.09, 2.19, 1.70, 7.51, repro,
2006-06-27,3.32, 3.88, 22.80, 3.33, 2.73, 11.71, repro,
2006-06-28,2.00, 0.91, 5.19, 2.24, 1.73, 7.61, repro,
2006-06-29,0.99, 2.40, 24.06, 2.26, 1.80, 7.85, repro,
2006-06-30,-0.59, 1.70, 17.53, 2.22, 1.74, 7.65, repro,
2006-07-01,-0.19, 1.53, 9.98, 2.20, 1.71, 7.53, repro,
2006-07-02,-0.82, -2.94, -4.01, 2.17, 1.71, 7.56, repro,
2006-07-03,1.25, 0.46, 5.42, 2.18, 1.69, 7.49, repro,
2006-07-04,2.11, 1.91, 13.17, 2.27, 1.75, 7.85, repro,
2006-07-05,1.76, 1.55, 7.60, 2.18, 1.70, 7.53, repro,
2006-07-06,0.48, 0.40, 3.73, 2.26, 1.77, 7.67, repro,
2006-07-07,0.51, -0.01, -1.65, 2.24, 1.75, 7.55, repro,
2006-07-08,1.12, 2.31, 3.54, 2.22, 1.70, 7.50, repro,
2006-07-09,2.24, 0.62, 13.25, 2.28, 1.76, 7.72, repro,
2006-07-10,2.09, 2.95, 11.28, 2.40, 1.84, 8.07, repro,
2006-07-11,1.09, 2.48, 15.32, 2.41, 1.82, 8.20, repro,
2006-07-12,-0.38, 0.44, -8.07, 2.36, 1.79, 7.91, repro,
2006-07-13,1.42, 0.91, 7.93, 2.31, 1.78, 7.71, repro,
2006-07-14,3.40, 1.64, 7.90, 2.31, 1.78, 7.81, repro,
2006-07-15,4.04, 1.47, 2.96, 2.32, 1.82, 7.94, repro,
2006-07-16,0.09, 0.67, 13.98, 2.31, 1.79, 7.78, repro,
2006-07-17,2.16, 0.69, 19.15, 2.52, 1.89, 8.39, repro,
2006-07-18,1.01, 3.09, 16.74, 2.34, 1.78, 7.79, repro,
2006-07-19,2.53, 0.33, 12.09, 2.29, 1.74, 7.64, repro,
2006-07-20,4.29, 1.89, -1.98, 2.34, 1.76, 7.76, repro,
2006-07-21,2.42, 1.65, 13.33, 2.48, 1.89, 8.37, repro,
2006-07-22,2.29, 0.15, 2.32, 2.31, 1.75, 7.78, repro,
2006-07-23,1.56, -1.20, 7.67, 2.39, 1.78, 8.07, repro,
2006-07-24,1.60, 1.01, 11.75, 2.92, 2.12, 9.38, repro,
2006-07-25,0.60, 0.73, 19.27, 2.33, 1.75, 7.74, repro,
2006-07-26,2.88, 4.17, 8.25, 2.36, 1.77, 7.87, repro,
2006-07-27,-0.55, -1.83, 16.21, 3.09, 2.48, 10.32, repro,
2006-07-28,3.37, 0.86, 4.21, 2.46, 1.84, 8.17, repro,
2006-07-29,-0.11, 0.21, 10.44, 2.45, 1.80, 8.07, repro,
2006-07-30,0.40, -0.20, 13.52, 2.99, 2.17, 9.45, repro,
2006-07-31,0.97, 2.13, 15.14, 2.32, 1.80, 8.15, repro,
2006-08-01,3.85, 3.02, 10.26, 2.70, 2.13, 9.50, repro,
2006-08-02,5.87, 0.14, 5.71, 2.22, 1.68, 7.64, repro,
2006-08-03,2.15, -0.88, 2.40, 2.65, 2.00, 9.05, repro,
2006-08-04,0.01, 0.18, 14.91, 2.31, 1.78, 7.93, repro,
2006-08-05,0.75, 0.01, 10.52, 2.25, 1.67, 7.54, repro,
2006-08-06,0.65, 1.05, 4.68, 2.17, 1.64, 7.33, repro,
2006-08-07,1.72, 1.31, 22.87, 2.42, 1.93, 8.33, repro,
2006-08-08,0.50, -0.07, 2.11, 2.17, 1.65, 7.40, repro,
2006-08-09,-0.80, -0.02, 7.70, 2.79, 2.06, 9.25, repro,
2006-08-10,-0.49, -0.25, 6.02, 2.21, 1.67, 7.58, repro,
2006-08-11,-0.35, -0.24, 15.41, 2.13, 1.62, 7.22, repro,
2006-08-12,0.35, -0.91, 8.87, 2.19, 1.67, 7.49, repro,
2006-08-13,-0.13, -2.48, 11.30, 3.55, 2.53, 10.94, repro,
2006-08-14,-0.98, 0.05, 17.37, 2.24, 1.68, 7.61, repro,
2006-08-15,-0.31, -0.95, 31.31, 3.16, 2.36, 10.34, repro,
2006-08-16,-0.32, -0.57, 9.31, 2.22, 1.66, 7.45, repro,
2006-08-17,0.39, 0.67, 5.38, 2.17, 1.68, 7.44, repro,
2006-08-18,-0.32, 0.58, 4.37, 2.27, 1.70, 7.66, repro,
2006-08-19,0.29, 1.44, 19.02, 2.23, 1.69, 7.52, repro,
2006-08-20,0.88, -0.12, 16.14, 2.32, 1.76, 7.89, repro,
2006-08-21,-1.28, -1.95, 3.63, 2.14, 1.64, 7.29, repro,
2006-08-22,-0.87, 1.29, 11.35, 2.16, 1.64, 7.36, repro,
2006-08-23,-1.50, 1.51, 10.54, 2.15, 1.64, 7.33, repro,
2006-08-24,0.28, -1.14, 6.98, 2.23, 1.66, 7.54, repro,
2006-08-25,0.63, 1.27, 3.25, 2.25, 1.68, 7.62, repro,
2006-08-26,-0.38, 2.09, 4.80, 2.46, 1.86, 8.42, repro,
2006-08-27,-0.52, 1.49, 12.78, 2.29, 1.72, 7.81, repro,
2006-08-28,0.23, 1.14, 14.81, 2.28, 1.70, 7.69, repro,
2006-08-29,-1.70, -0.10, 16.00, 2.29, 1.71, 7.77, repro,
2006-08-30,0.13, 0.45, 8.04, 2.27, 1.68, 7.65, repro,
2006-08-31,-1.14, 0.24, 4.82, 2.26, 1.68, 7.55, repro,
2006-09-01,0.05, -0.19, 3.74, 2.27, 1.69, 7.61, repro,
2006-09-02,-0.89, 0.65, 4.42, 2.36, 1.73, 7.84, repro,
2006-09-03,-0.62, 0.10, 10.53, 2.28, 1.70, 7.67, repro,
2006-09-04,-0.27, -1.32, 4.75, 2.31, 1.71, 7.76, repro,
2006-09-05,-1.10, -0.39, 8.19, 2.31, 1.71, 7.83, repro,
2006-09-06,1.68, -2.51, -0.58, 2.28, 1.70, 7.64, repro,
2006-09-07,-0.50, 1.72, 13.42, 2.43, 1.78, 8.01, repro,
2006-09-08,-0.46, 0.33, 10.95, 2.33, 1.73, 7.80, repro,
2006-09-09,1.05, -0.70, 12.17, 2.20, 1.67, 7.50, repro,
2006-09-10,-2.81, 0.32, 8.48, 2.18, 1.65, 7.44, repro,
2006-09-11,-0.45, -0.37, 3.17, 2.22, 1.66, 7.52, repro,
2006-09-12,-0.46, -0.53, 3.96, 2.21, 1.66, 7.51, repro,
2006-09-13,-0.81, -0.11, 10.56, 2.21, 1.67, 7.51, repro,
2006-09-14,-0.50, -0.79, 9.02, 2.21, 1.71, 7.61, repro,
2006-09-15,-0.83, -1.76, 10.87, 2.19, 1.69, 7.50, repro,
2006-09-16,-0.98, -0.02, 10.00, 2.15, 1.62, 7.29, repro,
2006-09-17,-0.39, 0.04, 11.70, 2.17, 1.64, 7.39, repro,
2006-09-18,-0.53, 0.41, 10.09, 2.23, 1.67, 7.60, repro,
2006-09-19,2.83, 1.59, 9.35, 2.24, 1.66, 7.52, repro,
2006-09-20,0.86, 0.20, 12.20, 2.15, 1.63, 7.35, repro,
2006-09-21,-1.25, 0.17, 13.86, 2.21, 1.65, 7.45, repro,
2006-09-22,-1.44, 0.30, 14.66, 2.26, 1.68, 7.62, repro,
2006-09-23,0.59, 0.68, 16.22, 2.20, 1.67, 7.50, repro,
2006-09-24,-0.40, -1.78, 0.87, 2.43, 1.82, 8.11, repro,
2006-09-25,-0.20, -0.68, 11.87, 2.15, 1.64, 7.37, repro,
2006-09-26,-1.23, -2.05, 8.16, 2.31, 1.81, 8.03, repro,
2006-09-27,-1.21, -1.49, 10.65, 2.25, 1.69, 7.70, repro,
2006-09-28,-0.59, 0.99, 13.09, 2.31, 1.70, 7.85, repro,
2006-09-29,-0.43, -0.19, 12.05, 2.30, 1.70, 7.79, repro,
2006-09-30,-0.42, -0.59, 4.19, 2.17, 1.64, 7.38, repro,
2006-10-01,-2.75, -0.25, 7.51, 2.28, 1.68, 7.73, repro,
2006-10-02,-0.65, -0.23, 1.19, 2.32, 1.72, 7.84, repro,
2006-10-03,-1.07, -1.39, 7.51, 2.32, 1.72, 7.77, repro,
2006-10-04,-0.58, 0.21, 5.76, 2.24, 1.68, 7.54, repro,
2006-10-05,-0.95, -0.87, -2.78, 2.18, 1.64, 7.39, repro,
2006-10-06,-1.47, -0.44, 0.08, 2.21, 1.65, 7.47, repro,
2006-10-07,-0.72, -1.07, -4.76, 2.37, 1.76, 8.01, repro,
2006-10-08,-1.87, -0.98, 4.67, 2.31, 1.74, 7.79, repro,
2006-10-09,-0.53, -1.49, 1.61, 2.41, 1.80, 8.11, repro,
2006-10-10,-1.51, -0.92, 9.39, 2.24, 1.66, 7.51, repro,
2006-10-11,-3.00, 1.04, 17.37, 2.25, 1.74, 7.73, repro,
2006-10-12,-3.63, -1.17, 22.56, 2.18, 1.64, 7.40, repro,
2006-10-13,-2.51, -0.55, 16.34, 2.19, 1.63, 7.38, repro,
2006-10-14,-0.44, -2.98, 6.77, 7.68, 4.85, 21.16, repro,
2006-10-15,-1.13, -0.30, 12.21, 2.36, 1.78, 8.23, repro,
2006-10-16,-1.59, -1.10, 8.28, 2.25, 1.65, 7.57, repro,
2006-10-17,-1.37, -0.30, 9.84, 2.20, 1.63, 7.43, repro,
2006-10-18,-0.22, 0.19, 15.22, 2.20, 1.61, 7.35, repro,
2006-10-19,0.62, -0.32, 15.01, 2.42, 1.69, 7.92, repro,
2006-10-20,-6.31, -0.11, 14.09, 2.50, 1.79, 8.26, repro,
2006-10-21,-2.19, -1.96, 10.02, 2.34, 1.70, 7.76, repro,
2006-10-22,0.46, -1.34, 0.83, 2.29, 1.69, 7.64, repro,
2006-10-23,-1.11, -1.16, 10.09, 2.58, 1.87, 8.47, repro,
2006-10-24,-2.78, -0.62, 9.13, 2.58, 1.82, 8.30, repro,
2006-10-25,-0.63, -1.02, 3.16, 2.45, 1.70, 7.93, repro,
2006-10-26,-2.76, -1.77, 5.84, 2.35, 1.67, 7.79, repro,
2006-10-27,-2.43, -0.88, 3.71, 2.27, 1.66, 7.67, repro,
2006-10-28,0.06, 1.00, 14.34, 2.24, 1.65, 7.53, repro,
2006-10-29,-5.51, -1.84, 17.93, 2.22, 1.63, 7.49, repro,
2006-10-30,-2.73, -0.97, 7.83, 2.20, 1.61, 7.36, repro,
2006-10-31,-2.30, -1.90, 4.25, 2.26, 1.65, 7.51, repro,
2006-11-01,-1.35, -1.09, 10.58, 2.32, 1.67, 7.66, repro,
2006-11-02,-0.02, -2.01, -0.35, 2.39, 1.73, 7.88, repro,
2006-11-03,-2.77, 0.20, 3.64, 2.42, 1.78, 8.03, repro,
2006-11-04,-1.34, -0.63, -10.92, 2.47, 1.80, 8.25, repro,
2006-11-05,-2.56, -1.65, -0.21, 2.56, 1.90, 8.43, repro,
2006-11-06,-2.32, -0.10, 1.66, 2.16, 1.61, 7.27, repro,
2006-11-07,-0.02, 0.06, 2.30, 2.32, 1.71, 7.90, repro,
2006-11-08,-0.01, 1.42, 17.49, 2.25, 1.67, 7.68, repro,
2006-11-09,0.03, -0.94, 12.93, 2.41, 1.76, 8.06, repro,
2006-11-10,-0.44, -1.48, 6.09, 2.21, 1.64, 7.53, repro,
2006-11-11,-2.46, -1.09, 6.49, 2.25, 1.66, 7.61, repro,
2006-11-12,-1.41, -0.83, -3.00, 2.39, 1.76, 8.01, repro,
2006-11-13,-3.91, -0.63, 0.21, 2.47, 1.87, 8.50, repro,
2006-11-14,-1.73, 0.21, 9.21, 2.24, 1.67, 7.52, repro,
2006-11-15,-1.48, -0.37, 10.31, 2.16, 1.60, 7.23, repro,
2006-11-16,-0.56, -1.15, 1.72, 2.18, 1.61, 7.32, repro,
2006-11-17,-0.93, 0.75, 16.82, 2.42, 1.83, 8.05, repro,
2006-11-18,-2.04, -1.70, 2.07, 2.17, 1.62, 7.29, repro,
2006-11-19,-1.97, -1.70, 0.33, 2.14, 1.59, 7.14, repro,
2006-11-20,-2.15, -2.18, -0.82, 2.14, 1.58, 7.11, repro,
2006-11-21,-2.25, -1.86, -4.09, 2.14, 1.58, 7.11, repro,
2006-11-22,-3.68, -2.01, 1.17, 2.15, 1.61, 7.20, repro,
2006-11-23,-2.32, -1.86, -6.68, 2.21, 1.64, 7.32, repro,
2006-11-24,-3.69, -2.09, -2.16, 2.22, 1.64, 7.36, repro,
2006-11-25,-4.29, -1.50, 2.40, 2.15, 1.60, 7.18, repro,
2006-11-26,-0.78, 1.34, 1.98, 2.16, 1.62, 7.24, repro,
2006-11-27,-2.10, 0.82, -3.71, 2.32, 1.77, 8.02, repro,
2006-11-28,-2.43, -0.28, 5.80, 2.16, 1.63, 7.29, repro,
2006-11-29,-1.07, 1.89, 7.65, 2.17, 1.62, 7.30, repro,
2006-11-30,-3.57, -2.34, -1.01, 2.17, 1.61, 7.27, repro,
2006-12-01,0.45, -1.63, -4.44, 2.60, 1.99, 8.74, repro,
2006-12-02,-3.42, -3.90, -0.45, 2.16, 1.60, 7.18, repro,
2006-12-03,-2.34, -2.04, -7.47, 2.15, 1.62, 7.23, repro,
2006-12-04,-1.33, -1.11, -6.32, 2.17, 1.64, 7.26, repro,
2006-12-05,-0.91, -0.64, -8.12, 2.24, 1.65, 7.38, repro,
2006-12-06,-1.74, -2.15, 1.02, 2.23, 1.64, 7.31, repro,
2006-12-07,-1.84, -1.05, -1.62, 2.21, 1.64, 7.31, repro,
2006-12-08,-0.91, -1.84, -7.62, 2.24, 1.66, 7.42, repro,
2006-12-09,-0.56, -1.29, -1.36, 2.16, 1.66, 7.33, repro,
2006-12-10,-2.56, -0.97, 1.40, 2.23, 1.67, 7.45, repro,
2006-12-11,-0.49, -0.90, -3.00, 2.15, 1.62, 7.22, repro,
2006-12-12,-1.37, -0.08, 0.23, 2.18, 1.65, 7.29, repro,
2006-12-13,-2.19, -1.29, 7.76, 2.15, 1.61, 7.18, repro,
2006-12-14,-2.37, 0.13, 12.02, 2.20, 1.64, 7.35, repro,
2006-12-15,-2.82, -2.13, 6.92, 2.23, 1.66, 7.54, repro,
2006-12-16,-1.42, -2.27, 5.43, 2.28, 1.72, 7.65, repro,
2006-12-17,-1.19, -1.47, 1.51, 2.24, 1.68, 7.45, repro,
2006-12-18,-0.73, 0.29, 2.24, 2.22, 1.70, 7.53, repro,
2006-12-19,-1.19, -2.21, 4.09, 2.30, 1.71, 7.65, repro,
2006-12-20,-0.82, -0.44, 5.44, 2.21, 1.71, 7.59, repro,
2006-12-21,-0.94, -0.99, 5.16, 2.14, 1.61, 7.21, repro,
2006-12-22,-1.62, 0.68, 4.31, 2.27, 1.74, 7.78, repro,
2006-12-23,-0.52, -0.87, 9.33, 2.13, 1.60, 7.15, repro,
2006-12-24,-1.21, -2.29, 6.66, 2.14, 1.60, 7.20, repro,
2006-12-25,-1.06, -1.48, 6.65, 2.19, 1.63, 7.37, repro,
2006-12-26,-1.78, 0.76, 9.55, 2.31, 1.75, 7.97, repro,
2006-12-27,-1.50, -1.14, 10.81, 2.28, 1.75, 7.78, repro,
2006-12-28,-3.46, -1.11, 3.79, 2.28, 1.74, 7.74, repro,
2006-12-29,-3.05, -2.66, -7.14, 2.37, 1.79, 8.07, repro,
2006-12-30,-2.50, -1.05, -4.10, 2.29, 1.75, 7.83, repro,
2006-12-31,-2.29, -1.07, -2.43, 2.29, 1.76, 7.89, repro,
2007-01-01,-0.77, -1.36, 1.48, 2.37, 1.80, 8.14, repro,
2007-01-02,-1.66, -0.63, 3.37, 2.24, 1.69, 7.53, repro,
2007-01-03,-1.81, -0.48, 12.30, 2.22, 1.62, 7.29, repro,
2007-01-04,-2.38, 0.90, 15.12, 2.24, 1.64, 7.38, repro,
2007-01-05,-3.34, -0.83, 14.41, 2.18, 1.60, 7.25, repro,
2007-01-06,0.34, 1.11, 6.65, 2.17, 1.59, 7.24, repro,
2007-01-07,-1.75, -1.21, 4.85, 2.21, 1.61, 7.41, repro,
2007-01-08,-1.01, 0.91, 9.49, 2.21, 1.61, 7.39, repro,
2007-01-09,-1.68, -0.64, 15.07, 2.13, 1.58, 7.16, repro,
2007-01-10,-1.23, -1.33, 3.40, 2.17, 1.62, 7.38, repro,
2007-01-11,-3.05, -1.30, 1.88, 2.21, 1.66, 7.56, repro,
2007-01-12,-2.14, -0.51, 6.41, 2.14, 1.59, 7.22, repro,
2007-01-13,-1.21, -2.08, -1.06, 2.13, 1.56, 7.11, repro,
2007-01-14,-1.54, -1.97, 0.11, 2.13, 1.57, 7.19, repro,
2007-01-15,-2.44, -2.50, 1.19, 2.11, 1.55, 7.10, repro,
2007-01-16,-3.86, -3.33, -2.44, 2.13, 1.58, 7.16, repro,
2007-01-17,-5.12, -4.35, -6.41, 2.48, 1.72, 8.08, repro,
2007-01-18,-4.34, -3.37, -5.94, 2.21, 1.59, 7.36, repro,
2007-01-19,-3.09, -2.98, 2.52, 2.17, 1.62, 7.31, repro,
2007-01-20,-3.37, -4.96, -3.92, 2.16, 1.62, 7.30, repro,
2007-01-21,-4.53, -4.66, -5.19, 2.11, 1.55, 7.07, repro,
2007-01-22,-3.23, -4.88, -1.21, 2.11, 1.55, 7.08, repro,
2007-01-23,-4.57, -4.18, -5.58, 2.52, 1.85, 8.43, repro,
2007-01-24,-3.48, -3.71, -4.78, 2.12, 1.56, 7.09, repro,
2007-01-25,-2.92, -4.83, -8.16, 2.13, 1.62, 7.29, repro,
2007-01-26,-5.23, -5.81, -5.02, 2.16, 1.65, 7.38, repro,
2007-01-27,-3.36, -4.80, -3.58, 2.20, 1.68, 7.54, repro,
2007-01-28,-3.00, -4.26, -0.14, 2.09, 1.56, 7.01, repro,
2007-01-29,-3.72, -5.15, -3.00, 2.17, 1.63, 7.34, repro,
2007-01-30,-3.09, -5.23, -4.59, 2.12, 1.61, 7.21, repro,
2007-01-31,-3.35, -3.63, -1.21, 2.12, 1.59, 7.14, repro,
2007-02-01,-0.92, -2.08, -2.59, 2.19, 1.62, 7.34, repro,
2007-02-02,-1.27, -2.39, 2.98, 2.21, 1.68, 7.55, repro,
2007-02-03,-1.93, -3.19, -0.74, 2.20, 1.67, 7.47, repro,
2007-02-04,-1.70, -3.64, -2.76, 2.23, 1.69, 7.60, repro,
2007-02-05,-2.79, -2.53, -1.61, 2.13, 1.61, 7.20, repro,
2007-02-06,-2.45, -2.55, -6.28, 2.27, 1.81, 7.87, repro,
2007-02-07,-3.41, -3.02, 1.71, 2.23, 1.74, 7.71, repro,
2007-02-08,-2.87, -2.28, 1.63, 2.35, 1.79, 7.98, repro,
2007-02-09,-2.01, -3.02, -1.65, 2.25, 1.69, 7.59, repro,
2007-02-10,-0.74, -2.19, 0.20, 2.18, 1.68, 7.49, repro,
2007-02-11,-1.35, -2.84, 1.43, 2.18, 1.70, 7.55, repro,
2007-02-12,-2.08, -2.90, 0.28, 2.16, 1.64, 7.36, repro,
2007-02-13,-1.54, -3.12, -7.16, 2.23, 1.71, 7.64, repro,
2007-02-14,-0.89, -3.02, -4.29, 2.13, 1.60, 7.18, repro,
2007-02-15,-1.24, -2.72, 3.86, 2.11, 1.63, 7.18, repro,
2007-02-16,-3.20, -2.17, 7.60, 2.14, 1.64, 7.27, repro,
2007-02-17,-1.52, -0.94, 5.41, 2.19, 1.67, 7.52, repro,
2007-02-18,-0.87, -1.85, 3.66, 2.14, 1.65, 7.34, repro,
2007-02-19,-1.03, -1.61, 2.24, 2.15, 1.66, 7.38, repro,
2007-02-20,-1.41, -0.68, 8.03, 2.24, 1.70, 7.52, repro,
2007-02-21,-2.14, -3.65, 4.92, 3.44, 2.69, 12.25, repro,
2007-02-22,-1.67, -0.86, -0.72, 2.07, 1.57, 6.99, repro,
2007-02-23,-1.35, -3.05, -6.76, 2.09, 1.57, 7.05, repro,
2007-02-24,-2.40, -2.34, -2.17, 2.09, 1.57, 7.00, repro,
2007-02-25,-2.38, -2.23, 0.66, 2.07, 1.56, 6.97, repro,
2007-02-26,-1.28, -0.94, -3.62, 2.09, 1.57, 7.03, repro,
2007-02-27,-1.50, -0.57, -2.89, 2.06, 1.57, 6.99, repro,
2007-02-28,-1.64, -1.09, -4.27, 2.10, 1.57, 7.04, repro,
2007-03-01,-1.73, -1.29, -3.80, 2.20, 1.62, 7.32, repro,
2007-03-02,0.01, 0.25, 5.08, 2.18, 1.60, 7.24, repro,
2007-03-03,-0.23, -1.17, 0.07, 2.12, 1.59, 7.07, repro,
2007-03-04,-1.43, -1.30, 5.93, 2.11, 1.59, 7.05, repro,
2007-03-05,-2.12, -2.36, 2.29, 2.12, 1.60, 7.13, repro,
2007-03-06,-2.38, -3.55, -8.20, 2.16, 1.61, 7.20, repro,
2007-03-07,-3.96, -3.07, -6.49, 2.16, 1.62, 7.30, repro,
2007-03-08,-2.98, -2.59, -3.71, 2.13, 1.60, 7.14, repro,
2007-03-09,-2.45, -2.35, -5.58, 2.12, 1.59, 7.08, repro,
2007-03-10,-1.95, -1.75, -3.97, 2.20, 1.67, 7.46, repro,
2007-03-11,-1.51, -2.96, -5.43, 2.15, 1.61, 7.18, repro,
2007-03-12,-1.37, -0.51, -1.49, 2.19, 1.62, 7.22, repro,
2007-03-13,-1.18, 0.67, 2.92, 2.12, 1.61, 7.15, repro,
2007-03-14,-2.85, -2.29, 10.08, 2.09, 1.58, 7.04, repro,
2007-03-15,-0.58, -1.91, -2.33, 2.19, 1.62, 7.35, repro,
2007-03-16,-1.37, -1.74, -5.97, 2.19, 1.63, 7.38, repro,
2007-03-17,-1.67, -1.33, -2.76, 2.09, 1.58, 7.08, repro,
2007-03-18,-1.02, -1.81, -5.56, 2.12, 1.61, 7.18, repro,
2007-03-19,-2.95, -1.02, -1.34, 2.12, 1.61, 7.17, repro,
2007-03-20,-0.16, -0.69, -10.50, 2.16, 1.67, 7.49, repro,
2007-03-21,-0.85, -0.50, -11.34, 2.22, 1.71, 7.64, repro,
2007-03-22,-3.11, -3.02, 0.92, 2.14, 1.62, 7.25, repro,
2007-03-23,-1.08, -1.04, 0.21, 2.12, 1.61, 7.13, repro,
2007-03-24,-0.98, -0.65, -4.68, 2.12, 1.61, 7.13, repro,
2007-03-25,-1.42, -0.35, -4.35, 2.06, 1.58, 6.99, repro,
2007-03-26,0.47, 1.11, -0.47, 2.14, 1.64, 7.31, repro,
2007-03-27,-1.72, -1.02, 5.16, 2.20, 1.70, 7.43, repro,
2007-03-28,-0.66, -0.41, -6.28, 2.68, 2.07, 9.02, repro,
2007-03-29,-2.03, -0.64, -4.90, 2.15, 1.64, 7.30, repro,
2007-03-30,-0.24, -1.98, -10.50, 2.08, 1.59, 7.06, repro,
2007-03-31,-2.61, -1.38, -0.19, 2.07, 1.58, 6.99, repro,
2007-04-01,-1.01, -0.09, 4.09, 2.12, 1.61, 7.13, repro,
2007-04-02,-0.96, -0.20, 4.54, 2.09, 1.59, 7.05, repro,
2007-04-03,-0.64, -1.19, 4.96, 2.17, 1.63, 7.19, repro,
2007-04-04,-1.42, 0.49, -2.75, 2.10, 1.62, 7.13, repro,
2007-04-05,-0.96, -0.60, 4.65, 2.13, 1.62, 7.13, repro,
2007-04-06,-1.03, -1.55, 0.52, 2.28, 1.73, 7.58, repro,
2007-04-07,-1.52, -0.95, 6.28, 2.10, 1.61, 7.07, repro,
2007-04-08,-1.75, -1.38, 8.30, 2.10, 1.62, 7.15, repro,
2007-04-09,-1.76, -1.35, 3.91, 2.15, 1.64, 7.30, repro,
2007-04-10,-2.33, -1.55, 2.96, 2.13, 1.65, 7.28, repro,
2007-04-11,-1.04, 0.05, 8.15, 2.11, 1.61, 7.12, repro,
2007-04-12,0.79, 1.30, 13.23, 2.12, 1.65, 7.29, repro,
2007-04-13,-1.26, -0.16, 3.94, 2.09, 1.62, 7.14, repro,
2007-04-14,-2.64, -0.55, 6.80, 2.34, 1.82, 8.07, repro,
2007-04-15,-1.19, 0.05, 5.03, 2.09, 1.64, 7.18, repro,
2007-04-16,-2.96, -0.56, 15.25, 2.07, 1.59, 6.98, repro,
2007-04-17,-1.36, -1.18, 9.46, 2.07, 1.60, 7.03, repro,
2007-04-18,-1.07, -0.70, 2.63, 2.10, 1.62, 7.09, repro,
2007-04-19,-1.02, -0.51, 2.84, 2.05, 1.59, 6.95, repro,
2007-04-20,-0.66, -0.60, 3.13, 2.06, 1.59, 6.97, repro,
2007-04-21,-0.88, -0.31, 0.01, 2.05, 1.59, 6.96, repro,
2007-04-22,-1.35, 0.63, 4.53, 2.05, 1.60, 7.00, repro,
2007-04-23,-1.38, -0.48, 10.12, 2.10, 1.63, 7.22, repro,
2007-04-24,-0.06, -1.30, 5.57, 2.11, 1.66, 7.31, repro,
2007-04-25,-0.92, 0.26, 1.89, 2.08, 1.62, 7.11, repro,
2007-04-26,-2.14, 1.18, 3.14, 2.04, 1.60, 6.98, repro,
2007-04-27,0.57, 4.62, 9.86, 2.07, 1.61, 7.08, repro,
2007-04-28,-0.34, 0.70, 11.18, 2.06, 1.60, 7.04, repro,
2007-04-29,-1.41, 0.75, 3.97, 2.05, 1.59, 6.98, repro,
2007-04-30,-0.26, 0.56, 10.05, 2.03, 1.59, 6.96, repro,
2007-05-01,-0.18, -0.00, 5.57, 2.09, 1.64, 7.16, repro,
2007-05-02,-0.12, 0.63, -2.12, 2.07, 1.65, 7.15, repro,
2007-05-03,-0.53, -0.06, -1.74, 2.06, 1.64, 7.13, repro,
2007-05-04,-0.20, 0.17, -4.13, 2.05, 1.60, 7.02, repro,
2007-05-05,-1.40, 0.43, 5.54, 2.05, 1.60, 7.02, repro,
2007-05-06,0.29, 0.26, -6.02, 2.06, 1.60, 7.01, repro,
2007-05-07,-0.83, -0.13, -0.84, 2.03, 1.60, 6.99, repro,
2007-05-08,-1.03, 1.08, 5.85, 2.06, 1.62, 7.14, repro,
2007-05-09,-1.05, 0.77, 11.62, 2.05, 1.60, 7.02, repro,
2007-05-10,-1.15, 0.91, 7.14, 2.15, 1.68, 7.41, repro,
2007-05-11,-0.59, 1.50, 7.44, 2.14, 1.67, 7.37, repro,
2007-05-12,-0.04, -0.70, 1.85, 2.04, 1.59, 6.97, repro,
2007-05-13,-0.17, -0.13, -2.36, 2.04, 1.60, 6.97, repro,
2007-05-14,-3.05, 0.34, 5.91, 2.09, 1.62, 7.08, repro,
2007-05-15,-0.01, 0.30, 3.33, 2.06, 1.62, 7.07, repro,
2007-05-16,-2.53, -1.86, 9.55, 2.08, 1.62, 7.13, repro,
2007-05-17,-2.46, -0.06, 5.40, 2.13, 1.66, 7.26, repro,
2007-05-18,0.22, 0.19, -3.43, 2.09, 1.69, 7.27, repro,
2007-05-19,-2.05, -0.29, -1.49, 2.04, 1.62, 7.00, repro,
2007-05-20,0.03, 0.27, 1.22, 2.05, 1.61, 7.03, repro,
2007-05-21,-1.83, -0.44, 2.54, 2.11, 1.63, 7.19, repro,
2007-05-22,-0.50, 1.06, -4.88, 2.06, 1.61, 7.00, repro,
2007-05-23,-1.37, 0.97, 1.22, 2.09, 1.65, 7.20, repro,
2007-05-24,1.77, 0.99, -2.63, 2.11, 1.71, 7.41, repro,
2007-05-25,-0.14, 1.57, 5.82, 2.05, 1.61, 7.02, repro,
2007-05-26,1.45, 1.10, 3.82, 2.11, 1.67, 7.32, repro,
2007-05-27,0.56, 1.04, 3.66, 2.10, 1.65, 7.23, repro,
2007-05-28,-0.60, -0.11, 2.69, 2.10, 1.64, 7.15, repro,
2007-05-29,0.53, 1.21, -2.72, 2.09, 1.65, 7.18, repro,
2007-05-30,0.75, 0.78, 4.16, 2.08, 1.63, 7.13, repro,
2007-05-31,2.13, 2.87, -2.69, 2.13, 1.67, 7.32, repro,
2007-06-01,2.98, 2.60, 3.24, 2.12, 1.66, 7.30, repro,
2007-06-02,0.15, 1.44, 12.54, 2.12, 1.69, 7.41, repro,
2007-06-03,0.37, 1.29, -0.85, 2.23, 1.77, 7.76, repro,
2007-06-04,2.74, 1.01, 10.90, 2.12, 1.66, 7.31, repro,
2007-06-05,2.71, 2.44, 27.11, 2.16, 1.71, 7.54, repro,
2007-06-06,-0.04, 0.33, 3.94, 2.11, 1.64, 7.20, repro,
2007-06-07,-2.24, 1.25, 10.57, 2.09, 1.64, 7.20, repro,
2007-06-08,3.28, 3.23, 13.91, 2.11, 1.65, 7.20, repro,
2007-06-09,1.46, 0.58, -2.76, 2.34, 1.79, 7.96, repro,
2007-06-10,0.49, 0.05, 0.79, 2.06, 1.61, 7.03, repro,
2007-06-11,1.30, 1.41, 3.86, 2.24, 1.67, 7.48, repro,
2007-06-12,1.72, 0.53, 4.90, 2.15, 1.64, 7.21, repro,
2007-06-13,1.07, 2.24, 4.90, 2.14, 1.67, 7.32, repro,
2007-06-14,1.33, 1.39, -1.64, 2.16, 1.67, 7.32, repro,
2007-06-15,1.27, 0.32, 4.57, 2.10, 1.64, 7.17, repro,
2007-06-16,-0.07, 2.04, -0.95, 2.18, 1.68, 7.39, repro,
2007-06-17,1.11, 2.49, 17.35, 2.33, 1.80, 7.92, repro,
2007-06-18,1.30, 0.60, 0.22, 2.03, 1.59, 6.96, repro,
2007-06-19,2.65, 2.40, 11.82, 2.03, 1.60, 7.01, repro,
2007-06-20,1.45, -0.25, 2.25, 2.21, 1.74, 7.75, repro,
2007-06-21,0.30, 1.44, 3.54, 2.09, 1.63, 7.18, repro,
2007-06-22,0.50, -0.69, 8.92, 2.13, 1.65, 7.33, repro,
2007-06-23,1.17, -0.78, 3.30, 2.04, 1.60, 7.04, repro,
2007-06-24,-0.24, 0.08, 4.42, 2.08, 1.63, 7.09, repro,